Погода в Троицке

Россия / Челябинская область     54°04′59″N   61°33′35″E
темп.,
°C
ветер,
м/с
пор.,
м/с
влажн.,
%
обл.,
%
осадки,
мм/ч
давл.,
гПа
погр.,
м
2 июля, сб
сб223:00+13св348136 0.0 101350
02:00+11в33885 0.0 101450
05:00+11св11865 0.0 101410
08:00+16ссв22685 0.0 1014262
11:00+20с225113 0.1 10131219
14:00+21с444966 0.1 10131921
17:00+21с44475 0.1 10121632
20:00+18св35715 0.0 1012135
3 июля, вс
вс323:00+13ссв22822 0.0 101216
02:00+12св11870 0.0 101210
05:00+11ссв12895 0.0 101210
08:00+16св23742 0.0 1011359
11:00+19всв345874 0.0 10091119
14:00+21в334945 0.0 10081829
17:00+22в3347100 0.0 10072082
20:00+19всв3465100 0.0 100581
4 июля, пн
пн423:00+17в3466100 0.0 100573
02:00+16всв2368100 0.0 100363
05:00+15ссв4775100 0.0 1002205
08:00+14ссв61092100 0.0 1003395
11:00+13ссв71192100 0.1 1003610
14:00+13ссв81290100 0.1 1004793
17:00+13ссв81288100 0.1 1004817
20:00+13ссв81282100 0.0 10051015
5 июля, вт
вт523:00+12ссв91477100 0.0 1006887
02:00+11ссв71388100 0.4 1007818
05:00+10с61386100 0.5 1008543
08:00+10с61285100 0.1 1010483
11:00+12с697772 0.3 1011723
14:00+16ссв786233 0.0 10111271
17:00+17ссв576287 0.0 10121519
20:00+14ссв597382 0.2 1013519
6 июля, ср
ср623:00+10с36905 0.2 1014107
02:00+9ссз35915 0.0 101476
05:00+10ссз3678100 0.0 1015112
08:00+12ссз3775100 0.0 1015217
11:00+18с34525 0.0 1015951
14:00+20с4545100 0.0 10142375
17:00+19с2353100 0.0 10151067
20:00+17ссз2372100 0.1 101544